Location: Katowice
(50.2611°N, 19.0242°E)
Time: 04:43:07
(UTC+02:00)

A-11 Canister half - Pass Details

Date: 26 July 2019
Orbit: 1526 x 1683 km, 47.3° (Epoch: 21 August)

Event Time Altitude Azimuth Distance (km) Brightness Sun altitude
Rises 18:17:10 0° 193° (SSW) 4,922 11.7 20.0°
Reaches altitude 10° 18:21:07 10° 181° (S) 3,933 11.1 19.4°
Maximum altitude 18:28:37 24° 132° (SE) 2,935 10.2 18.2°
Drops below altitude 10° 18:36:01 10° 84° (E) 3,889 10.6 17.1°
Sets 18:39:52 0° 72° (ENE) 4,856 11.1 16.5°
